{"data":{"norad_id":42960,"epoch":"2026-09-20T04:05:26.765088Z","epoch_age_seconds":44087,"freshness":"FRESH","line1":"1 42960U 17061F   26263.17044867  .00000167  00000+0  52614-4 0  9997","line2":"2 42960  86.4023 345.5840 0002173  89.6096 270.5348 14.34217587468432","mean_motion":14.34217587,"eccentricity":0.0002173,"inclination_deg":86.4023,"raan_deg":345.584,"arg_perigee_deg":89.6096,"mean_anomaly_deg":270.5348,"bstar":5.2614e-5,"rev_number":46843,"period_min":100.40317543533,"perigee_km":776.11274016824,"apogee_km":779.22265288935,"semimajor_km":7155.8046965288,"source":"CELESTRAK","updated_at":"2026-09-20T09:00:36.325139Z"}}